Flag for Brazil Weather past 2 weeks in Passo Fundo, Rio Grande do Sul, Brazil

Now
73 °F

Clear.


Feels Like: 76 °F
Forecast: N/A
Wind: 2 mph from North

Location: Porto Alegre Aero-Porto

Current Time: Jul 31, 2015 at 8:50:54 PM

Latest Report: Jul 31, 2015 at 8:00 PM


Visibility: 10 mi

Pressure: 29.92 "Hg (27.66 "Hg at 680m altitude)

Humidity: 65%

Dew point: 61 °F

Location of Passo FundoLocation

Historic Weather in Passo Fundo — Graph

°F

Passo Fundo temperature yesterday

Maximum temperature yesterday: 84 °F (at 2:00 PM)
Minimum temperature yesterday: 57 °F (at 7:00 AM)
Average temperature yesterday: 69 °F

Past Weeks' High & Low Weather Summary

 TemperatureHumidityPressure
High84 °F (Jul 30, 2:00 PM)100% (Jul 16, 10:00 PM)30.33 "Hg (Jul 16, 10:00 PM)
Low43 °F (Jul 19, 2:00 AM)32% (Jul 19, 10:00 PM)29.89 "Hg (Jul 19, 2:00 PM)
Average62 °F83%30.12 "Hg
* Reported Jul 16 8:00 PM — Jul 31 8:00 PM, Passo Fundo, Weather by CustomWeather, © 2015

Note: Actual official high and low records may vary slightly from our data, if they occured in-between our weather recording intervals... More about our weather records

Advertising

Passo Fundo weather history for previous 24 hours

 ConditionsComfort  
Time TempWeatherWind HumidityBarometerVisibility
8:00 PM
Fri, Jul 31
73 °FClear.2 mph65%29.92 "Hg10 mi
7:00 PM81 °FPassing clouds.5 mph42%29.92 "HgN/A
6:00 PM82 °FPassing clouds.3 mph40%29.89 "HgN/A
5:00 PM84 °FPassing clouds.3 mph40%29.89 "HgN/A
4:00 PM82 °FPassing clouds.7 mph40%29.92 "HgN/A
3:00 PM84 °FPassing clouds.8 mph35%29.92 "HgN/A
2:00 PM84 °FSunny.9 mph33%29.92 "Hg10 mi
1:00 PM82 °FSunny.2 mph40%29.95 "Hg10 mi
12:00 PM77 °FSunny.7 mph47%29.98 "Hg10 mi
11:00 AM75 °FSunny.8 mph47%29.98 "Hg10 mi
10:00 AM72 °FSunny.7 mph53%30.01 "Hg10 mi
9:00 AM68 °FSunny.6 mph64%30.01 "Hg10 mi
8:00 AM63 °FSunny.6 mph77%30.01 "Hg10 mi
7:00 AM61 °FSunny.7 mph83%30.01 "Hg10 mi
6:00 AM59 °FClear.6 mph88%30.01 "Hg10 mi
5:00 AM59 °FClear.5 mph88%30.01 "Hg10 mi
4:00 AM61 °FClear.7 mph88%30.04 "Hg10 mi
3:00 AM61 °FClear.7 mph88%30.04 "Hg10 mi
2:00 AM61 °FClear.7 mph88%30.04 "Hg10 mi
1:00 AM61 °FClear.6 mph88%30.07 "Hg10 mi
12:00 AM64 °FClear.8 mph83%30.07 "Hg10 mi
11:00 PM
Thu, Jul 30
64 °FClear.5 mph78%30.07 "Hg10 mi
10:00 PM68 °FClear.5 mph78%30.07 "Hg10 mi
9:00 PM68 °FClear.3 mph78%30.07 "Hg10 mi
8:00 PM70 °FClear.6 mph78%30.07 "Hg10 mi
Weather by CustomWeather, © 2015

See weather overviewHow to use our weather pages